Weather History for Le Mars, IA

Change the Weather History Date:

Sunday, December 9, 2012

  Actual Average Record
Temperature  
Mean Temperature 24 °F -  
Max Temperature 37 °F 33 °F 56 °F (1979)
Min Temperature 10 °F 12 °F -12 °F (1972)
Degree Days  
Heating Degree Days 42    
Moisture  
Dew Point 18 °F    
Average Humidity 77    
Maximum Humidity 87    
Minimum Humidity 67    
Precipitation  
Precipitation 0.00 in - - ()
Sea Level Pressure  
Sea Level Pressure 29.92 in    
Wind  
Wind Speed 14 mph (WNW)    
Max Wind Speed 28 mph    
Max Gust Speed 38 mph    
Visibility 8 miles    
Events Snow    
Averages and records for this station are not official NWS values.
T = Trace of Precipitation, MM = Missing Value Source: NWS Daily Summary

Daily Weather History Graph

Daily Weather History Graph

Search for Another Location

Airport:

Trip Planner

Search our weather history database for the weather conditions in past years. The results will help you decide how hot, cold, wet, or windy it might be!

Date:

Astronomy

Dec. 09, 2012 Rise Set
Actual Time 7:43 AM CST 4:50 PM CST
Civil Twilight 7:11 AM CST 5:22 PM CST
Nautical Twilight 6:36 AM CST 5:58 PM CST
Astronomical Twilight 6:02 AM CST 6:32 PM CST
Moon 3:13 AM CST (12/9) 2:01 PM CST (12/9)
Length of Visible Light 10h 10m
Length of Day
9h 06m
Waning Crescent, 18% of the Moon is Illuminated
Dec 9
Waning Crescent
Dec 13
New
Dec 19
First Quarter
Dec 28
Full
Jan 4
Last Quarter

Hourly Weather History & Observations

Time (CST) Temp. Windchill Dew Point Humidity Pressure Visibility Wind Dir Wind Speed Gust Speed Precip Events Conditions
12:15 AM 35.6 °F 27.1 °F 30.2 °F 81% 29.83 in 7.0 mi SSE 12.7 mph - N/A   Overcast
12:35 AM 35.6 °F 27.5 °F 30.2 °F 81% 29.83 in 7.0 mi SSE 11.5 mph 17.3 mph N/A   Overcast
12:55 AM 35.6 °F 28.0 °F 30.2 °F 81% 29.83 in 7.0 mi SSE 10.4 mph - N/A   Mostly Cloudy
1:15 AM 35.6 °F 28.6 °F 30.2 °F 81% 29.83 in 7.0 mi SSE 9.2 mph - N/A   Mostly Cloudy
1:35 AM 35.6 °F 27.1 °F 30.2 °F 81% 29.82 in 7.0 mi SSE 12.7 mph - N/A   Overcast
1:55 AM 35.6 °F 27.5 °F 30.2 °F 81% 29.83 in 7.0 mi SSE 11.5 mph 17.3 mph N/A   Overcast
2:15 AM 35.6 °F 27.5 °F 30.2 °F 81% 29.83 in 7.0 mi SSE 11.5 mph - N/A   Overcast
2:35 AM 35.6 °F 28.0 °F 30.2 °F 81% 29.82 in 7.0 mi South 10.4 mph - N/A   Overcast
2:55 AM 35.6 °F 28.0 °F 30.2 °F 81% 29.81 in 5.0 mi South 10.4 mph - N/A   Haze
3:15 AM 35.6 °F 29.2 °F 32.0 °F 87% 29.79 in 5.0 mi SSE 8.1 mph - N/A Snow Light Snow
3:35 AM 35.6 °F 29.2 °F 32.0 °F 87% 29.80 in 5.0 mi SSW 8.1 mph - N/A   Overcast
3:55 AM 35.6 °F 28.6 °F 32.0 °F 87% 29.79 in 5.0 mi South 9.2 mph - N/A   Overcast
4:15 AM 35.6 °F 29.2 °F 32.0 °F 87% 29.79 in 5.0 mi South 8.1 mph - N/A   Overcast
4:35 AM 35.6 °F 28.6 °F 32.0 °F 87% 29.79 in 5.0 mi South 9.2 mph - N/A   Overcast
4:55 AM 37.4 °F 30.8 °F 32.0 °F 81% 29.79 in 5.0 mi SSW 9.2 mph - N/A   Haze
5:15 AM 35.6 °F 28.0 °F 32.0 °F 87% 29.79 in 5.0 mi SSW 10.4 mph - N/A   Overcast
5:35 AM 35.6 °F 28.6 °F 32.0 °F 87% 29.79 in 4.0 mi SW 9.2 mph - N/A   Overcast
5:55 AM 35.6 °F 30.7 °F 32.0 °F 87% 29.80 in 5.0 mi WNW 5.8 mph - N/A   Overcast
6:15 AM 35.6 °F 28.0 °F 30.2 °F 81% 29.81 in 10.0 mi West 10.4 mph - N/A   Overcast
6:35 AM 35.6 °F 26.6 °F 30.2 °F 81% 29.81 in 10.0 mi West 13.8 mph 19.6 mph N/A   Overcast
6:55 AM 35.6 °F 27.1 °F 28.4 °F 75% 29.83 in 10.0 mi West 12.7 mph - N/A   Overcast
7:15 AM 33.8 °F 25.3 °F 26.6 °F 75% 29.83 in 10.0 mi West 11.5 mph - N/A   Overcast
7:35 AM 32.0 °F 21.2 °F 26.6 °F 80% 29.84 in 10.0 mi West 16.1 mph 20.7 mph N/A   Overcast
7:55 AM 30.2 °F 19.8 °F 24.8 °F 80% 29.86 in 10.0 mi West 13.8 mph 20.7 mph N/A   Overcast
8:15 AM 30.2 °F 19.8 °F 21.2 °F 69% 29.85 in 10.0 mi West 13.8 mph 21.9 mph N/A   Overcast
8:35 AM 28.4 °F 16.2 °F 21.2 °F 74% 29.86 in 10.0 mi West 17.3 mph 21.9 mph N/A   Overcast
8:55 AM 28.4 °F 16.6 °F 21.2 °F 74% 29.86 in 10.0 mi West 16.1 mph 20.7 mph N/A   Overcast
9:35 AM 24.8 °F 10.0 °F 17.6 °F 74% 29.87 in 10.0 mi West 21.9 mph 29.9 mph N/A   Overcast
9:55 AM 24.8 °F 10.0 °F 17.6 °F 74% 29.88 in 10.0 mi West 21.9 mph 26.5 mph N/A   Overcast
10:15 AM 24.8 °F 10.7 °F 17.6 °F 74% 29.89 in 10.0 mi West 19.6 mph 26.5 mph N/A   Overcast
10:35 AM 21.2 °F 7.3 °F 15.8 °F 80% 29.89 in 10.0 mi West 16.1 mph 21.9 mph N/A   Overcast
10:55 AM 21.2 °F 7.3 °F 15.8 °F 80% 29.89 in 10.0 mi West 16.1 mph 23.0 mph N/A   Overcast
11:15 AM 21.2 °F 6.0 °F 15.8 °F 80% 29.88 in 10.0 mi West 19.6 mph 26.5 mph N/A   Overcast
11:35 AM 21.2 °F 7.3 °F 15.8 °F 80% 29.87 in 10.0 mi West 16.1 mph 23.0 mph N/A   Overcast
11:55 AM 21.2 °F 7.3 °F 15.8 °F 80% 29.87 in 10.0 mi West 16.1 mph 26.5 mph N/A   Overcast
12:15 PM 21.2 °F 5.6 °F 15.8 °F 80% 29.87 in 7.0 mi WNW 20.7 mph 32.2 mph N/A   Overcast
12:35 PM 21.2 °F 5.6 °F 15.8 °F 80% 29.87 in 7.0 mi WNW 20.7 mph 27.6 mph N/A   Overcast
12:55 PM 21.2 °F 4.2 °F 15.8 °F 80% 29.87 in 7.0 mi WNW 25.3 mph 32.2 mph N/A   Overcast
1:15 PM 21.2 °F 4.2 °F 14.0 °F 74% 29.88 in 10.0 mi WNW 25.3 mph 33.4 mph N/A   Overcast
1:35 PM 19.4 °F 1.4 °F 12.2 °F 74% 29.88 in 7.0 mi WNW 26.5 mph 38.0 mph N/A   Overcast
1:55 PM 19.4 °F 1.1 °F 14.0 °F 80% 29.90 in 2.5 mi WNW 27.6 mph 35.7 mph N/A   Haze
2:15 PM 19.4 °F 2.5 °F 12.2 °F 74% 29.91 in 3.0 mi WNW 23.0 mph 31.1 mph N/A   Haze
2:35 PM 19.4 °F 2.5 °F 14.0 °F 80% 29.90 in 5.0 mi WNW 23.0 mph 29.9 mph N/A   Haze
2:55 PM 19.4 °F 2.5 °F 12.2 °F 74% 29.90 in 5.0 mi NW 23.0 mph 29.9 mph N/A   Haze
3:15 PM 19.4 °F 3.6 °F 12.2 °F 74% 29.92 in 10.0 mi NW 19.6 mph 33.4 mph N/A   Overcast
3:35 PM 19.4 °F 3.2 °F 12.2 °F 74% 29.93 in 10.0 mi NW 20.7 mph 28.8 mph N/A   Overcast
3:55 PM 19.4 °F 2.8 °F 12.2 °F 74% 29.95 in 5.0 mi NW 21.9 mph 32.2 mph N/A Snow Light Snow
4:15 PM 19.4 °F 3.6 °F 12.2 °F 74% 29.96 in 5.0 mi NW 19.6 mph 27.6 mph N/A Snow Light Snow
4:35 PM 19.4 °F 4.5 °F 12.2 °F 74% 29.97 in 3.0 mi NW 17.3 mph 27.6 mph N/A Snow Light Snow
4:55 PM 19.4 °F 4.5 °F 14.0 °F 80% 29.98 in 3.0 mi NW 17.3 mph 21.9 mph N/A Snow Light Snow
5:15 PM 19.4 °F 2.8 °F 14.0 °F 80% 29.99 in 5.0 mi NNW 21.9 mph 29.9 mph N/A Snow Light Snow
5:35 PM 19.4 °F 5.5 °F 14.0 °F 80% 30.01 in 4.0 mi NNW 15.0 mph 25.3 mph N/A Snow Light Snow
5:55 PM 19.4 °F 3.6 °F 12.2 °F 74% 30.01 in 4.0 mi NNW 19.6 mph 26.5 mph N/A Snow Light Snow
6:15 PM 19.4 °F 4.5 °F 12.2 °F 74% 30.02 in 7.0 mi NNW 17.3 mph 28.8 mph N/A Snow Light Snow
6:35 PM 17.6 °F 1.3 °F 12.2 °F 79% 30.03 in 3.0 mi NW 19.6 mph 29.9 mph N/A Snow Light Snow
6:55 PM 17.6 °F 2.2 °F 10.4 °F 73% 30.04 in 5.0 mi NW 17.3 mph 25.3 mph N/A Snow Light Snow
7:15 PM 15.8 °F -1.1 °F 8.6 °F 73% 30.05 in 7.0 mi NW 19.6 mph 27.6 mph N/A Snow Light Snow
7:35 PM 15.8 °F -0.2 °F 8.6 °F 73% 30.06 in 10.0 mi NW 17.3 mph 25.3 mph N/A Snow Light Snow
7:55 PM 15.8 °F -0.2 °F 6.8 °F 68% 30.07 in 10.0 mi NNW 17.3 mph 28.8 mph N/A   Overcast
8:15 PM 15.8 °F -1.5 °F 6.8 °F 68% 30.06 in 10.0 mi NNW 20.7 mph 28.8 mph N/A   Overcast
8:35 PM 15.8 °F -1.9 °F 6.8 °F 68% 30.06 in 10.0 mi NNW 21.9 mph 29.9 mph N/A   Overcast
8:55 PM 15.8 °F -1.1 °F 6.8 °F 68% 30.06 in 10.0 mi NW 19.6 mph 26.5 mph N/A   Overcast
9:15 PM 14.0 °F -3.0 °F 6.8 °F 73% 30.08 in 10.0 mi NW 18.4 mph 24.2 mph N/A   Overcast
9:35 PM 15.8 °F 0.3 °F 6.8 °F 68% 30.08 in 10.0 mi NW 16.1 mph 27.6 mph N/A   Overcast
9:55 PM 14.0 °F -1.4 °F 6.8 °F 73% 30.09 in 10.0 mi NW 15.0 mph 24.2 mph N/A   Overcast
10:15 PM 12.2 °F -5.3 °F 5.0 °F 73% 30.10 in 10.0 mi NW 18.4 mph 23.0 mph N/A   Overcast
10:35 PM 12.2 °F -3.7 °F 3.2 °F 67% 30.10 in 10.0 mi NW 15.0 mph 20.7 mph N/A   Overcast
10:55 PM 12.2 °F -4.3 °F 3.2 °F 67% 30.10 in 10.0 mi NW 16.1 mph 24.2 mph N/A   Overcast
11:15 PM 12.2 °F -3.7 °F 3.2 °F 67% 30.10 in 10.0 mi NW 15.0 mph 20.7 mph N/A   Overcast
11:35 PM 10.4 °F -7.7 °F 3.2 °F 73% 30.10 in 10.0 mi NW 18.4 mph 24.2 mph N/A   Overcast
11:55 PM 10.4 °F -5.4 °F 1.4 °F 67% 30.10 in 10.0 mi NW 13.8 mph 23.0 mph N/A   Overcast